Tracking 35019 objects as of 13-Aug-2026
HD Live streaming from Space Station
objects crossing your sky now

SALYUT 7 DEB


SALYUT 7 DEB is no longer on orbit


NORAD ID: 15217
Int'l Code: 1982-033CV
Launch date: April 19, 1982
Source: Commonwealth of Independent States (former USSR) (CIS)
Launch site: TYURATAM MISSILE AND SPACE COMPLEX (TTMTR)
Decay date: 1984-09-08

Note: This is SATELLITE DEBRIS
Your satellite tracking list
Your tracking list is empty




NASA's NSSDC Master Catalog

Two Line Element Set (TLE):
1 15217U 82033 CV 84250.72133460  .06345307 +88197-5 +65894-2 0  9997
2 15217 051.5334 310.6953 0019945 243.1548 115.7163 16.09347343137848
Source of the keplerian elements: AFSPC